Regional Weather Roundup
Issued by NWS

Home | Current Version | Previous Version | Graphics & Text | Print | Product List | Glossary On
Versions: 1 2 3 4 5 6 7 8 9 10 11 12 13 14 15 16 17 18 19 20 21 22 23 24 25 26 27 28 29 30 31 32 33 34 35 36 37 38 39 40 41 42 43 44 45 46 47 48 49 50
000
ASUS43 KFSD 051802
RWRSD

WEATHER ROUNDUP FOR SOUTH DAKOTA
NATIONAL WEATHER SERVICE SIOUX FALLS SD
1200 PM CST THU MAR 05 2015

NOTE: "FAIR" INDICATES FEW OR NO CLOUDS BELOW 12,000 FEET WITH NO
SIGNIFICANT WEATHER AND/OR OBSTRUCTIONS TO VISIBILITY.


SDZ001>005-009-010-012>017-051900-
NORTHWEST AND NORTH CENTRAL SOUTH DAKOTA

CITY           SKY/WX    TMP DP  RH WIND       PRES   REMARKS
BUFFALO          N/A     38  11  32 W25G35    30.00S
FAITH            N/A     32   6  33 SW15      30.10F WCI  22
MOBRIDGE       SUNNY     22   6  50 SE16      30.16F WCI   8
$$

SDZ012>016-024>037-041>051-057-063-072>074-051900-
SOUTHWEST AND SOUTH CENTRAL SOUTH DAKOTA

CITY           SKY/WX    TMP DP  RH WIND       PRES   REMARKS
RAPID CTY ARPT MOSUNNY   36  19  50 E5        30.12S
PIERRE         SUNNY     18   9  68 SE9       30.24F WCI   7
CUSTER         MOSUNNY   32   7  35 W14G22    30.06S WCI  22
ELLSWORTH AFB  PTSUNNY   37  10  33 VRB3      30.11S
PHILIP         SUNNY     23  10  57 SW10      30.19F WCI  12
PINE RIDGE     MOSUNNY   26  10  50 SW12      30.19S WCI  16
SPEARFISH      FAIR      36  10  35 W17G28    30.10S
WINNER         FAIR      27  10  49 S15       30.26F WCI  15
$$

SDZ004>011-016>023-039-040-051900-
NORTHEAST SOUTH DAKOTA

CITY           SKY/WX    TMP DP  RH WIND       PRES   REMARKS
ABERDEEN       SUNNY     11   1  64 S20       30.33F WCI  -7
WATERTOWN      FAIR      10   1  67 S14       30.33F WCI  -6
$$

SDZ017-020-022-023-036>040-048>070-051900-
SOUTHEAST SOUTH DAKOTA

CITY           SKY/WX    TMP DP  RH WIND       PRES   REMARKS
SIOUX FALLS    FAIR      16   3  56 S12       30.42F WCI   3
HURON          SUNNY     19   6  57 S13       30.35F WCI   6
MITCHELL       SUNNY     23   8  52 S15       30.38F WCI  10
YANKTON        FAIR      25   1  36 S8G16     30.43F WCI  16
$$

ABBREVIATIONS USED IN REMARKS
   TC - TEMPERATURE IN CELSIUS
  WCI - WIND CHILL INDEX
   HX - HEAT INDEX
  VSB - VISIBILITY



USA.gov is the U.S. government's official web portal to all federal, state and local government web resources and services.